Monticello, KY

2:53 AM CDT on August 29, 2016 (GMT -0500)
Wayne County

Weather History for KEKQ - May, 2013

Change the Weather History Date:

Sunday, May 12, 2013

  Actual Average Record
Temperature  
Mean Temperature 51 °F -  
Max Temperature 61 °F 75 °F 88 °F (1957)
Min Temperature 39 °F 52 °F 35 °F (1989)
Degree Days  
Heating Degree Days 14    
Growing Degree Days 1 (Base 50)    
Moisture  
Dew Point 36 °F    
Average Humidity 58    
Maximum Humidity 100    
Minimum Humidity 31    
Precipitation  
Precipitation 0.00 in - - ()
Sea Level Pressure  
Sea Level Pressure 30.15 in    
Wind  
Wind Speed 9 mph (NW)    
Max Wind Speed 13 mph    
Max Gust Speed 20 mph    
Visibility 10 miles    
Events Rain    
Averages and records for this station are not official NWS values.
T = Trace of Precipitation, MM = Missing Value Source: NWS Daily Summary

Daily Weather History Graph

Daily Weather History Graph

Search for Another Location

Airport or City:

Trip Planner

Search our weather history database for the weather conditions in past years. The results will help you decide how hot, cold, wet, or windy it might be!

Date:

Astronomy

May. 12, 2013 Rise Set
Actual Time 5:34 AM CDT 7:37 PM CDT
Civil Twilight 5:05 AM CDT 8:06 PM CDT
Nautical Twilight 4:30 AM CDT 8:41 PM CDT
Astronomical Twilight 3:52 AM CDT 9:19 PM CDT
Moon 7:29 AM CDT (5/12) 10:03 PM CDT (5/12)
Length of Visible Light 15h 01m
Length of Day
14h 03m
Waxing Crescent, 7% of the Moon is Illuminated
May 12
Waxing Crescent
May 17
First Quarter
May 24
Full
May 31
Last Quarter
Jun 8
New

Hourly Weather History & Observations

Time (CDT) Temp. Windchill Dew Point Humidity Pressure Visibility Wind Dir Wind Speed Gust Speed Precip Events Conditions
12:28 AM 55.4 °F - 55.4 °F 100% 30.05 in 10.0 mi NW 9.2 mph - 0.00 in Rain Light Rain
12:56 AM 54.9 °F - 47.8 °F 77% 30.07 in 10.0 mi NNW 10.4 mph - 0.00 in   Mostly Cloudy
1:56 AM 52.0 °F - 39.9 °F 63% 30.08 in 10.0 mi NNW 10.4 mph - N/A   Mostly Cloudy
2:56 AM 48.9 °F - 39.9 °F 71% 30.09 in 10.0 mi NW 6.9 mph - N/A   Partly Cloudy
3:56 AM 46.9 °F - 36.9 °F 68% 30.10 in 10.0 mi NW 8.1 mph - N/A   Clear
4:56 AM 41.9 °F 38.2 °F 37.9 °F 86% 30.11 in 10.0 mi NW 5.8 mph - N/A   Clear
5:56 AM 41.9 °F 37.5 °F 36.9 °F 82% 30.13 in 10.0 mi NW 6.9 mph - N/A   Clear
6:56 AM 46.9 °F - 37.9 °F 71% 30.14 in 10.0 mi NW 8.1 mph - N/A   Clear
7:56 AM 50.9 °F - 36.9 °F 59% 30.15 in 10.0 mi North 6.9 mph - N/A   Clear
8:56 AM 52.9 °F - 32.0 °F 45% 30.16 in 10.0 mi North 12.7 mph - N/A   Clear
9:56 AM 54.0 °F - 30.0 °F 40% 30.17 in 10.0 mi West 12.7 mph - N/A   Clear
10:56 AM 55.9 °F - 29.1 °F 36% 30.17 in 10.0 mi WNW 11.5 mph 17.3 mph N/A   Clear
11:56 AM 56.8 °F - 28.0 °F 33% 30.17 in 10.0 mi West 10.4 mph 18.4 mph N/A   Clear
12:56 PM 57.9 °F - 29.1 °F 33% 30.17 in 10.0 mi WNW 11.5 mph 19.6 mph N/A   Clear
1:56 PM 59.9 °F - 29.1 °F 31% 30.17 in 10.0 mi NW 11.5 mph - N/A   Clear
2:56 PM 59.9 °F - 30.0 °F 32% 30.15 in 10.0 mi NNW 12.7 mph 18.4 mph N/A   Clear
3:56 PM 61.0 °F - 31.1 °F 32% 30.14 in 10.0 mi NNW 11.5 mph 17.3 mph N/A   Clear
4:56 PM 61.0 °F - 31.1 °F 32% 30.14 in 10.0 mi WNW 8.1 mph - N/A   Clear
5:56 PM 59.0 °F - 30.0 °F 33% 30.15 in 10.0 mi WNW 8.1 mph - N/A   Clear
6:56 PM 55.9 °F - 32.9 °F 42% 30.15 in 10.0 mi WNW 6.9 mph - N/A   Clear
7:56 PM 47.8 °F - 36.9 °F 66% 30.17 in 10.0 mi West 5.8 mph - N/A   Clear
8:56 PM 46.9 °F - 36.0 °F 66% 30.19 in 10.0 mi WNW 3.5 mph - N/A   Clear
9:56 PM 45.0 °F 43.5 °F 36.9 °F 73% 30.21 in 10.0 mi West 3.5 mph - N/A   Clear
10:56 PM 41.0 °F - 37.9 °F 89% 30.21 in 10.0 mi Calm Calm - N/A   Clear
11:56 PM 39.9 °F - 38.8 °F 96% 30.22 in 10.0 mi Calm Calm - N/A   Clear